GW0175 Weather Reports


Display with metric or nautical units.
time (UTC)temp
F
wind
direction
speed
MPH
gust
MPH
rain 1hr
in
rain 24hr
in
rain mn
in
humidity
%
barometer
mb
20220529111819 77 237 5.0 11.0 0.00 0.00 0.00 10 1001.3
20220529111318 77 229 6.0 9.0 0.00 0.00 0.00 9 1001.4
20220529110817 77 198 7.0 11.0 0.00 0.00 0.00 9 1001.2
20220529110315 77 219 4.0 9.0 0.00 0.00 0.00 9 1001.2
20220529105813 77 233 4.0 9.0 0.00 0.00 0.00 9 1001.2
20220529105314 77 225 4.0 10.0 0.00 0.00 0.00 9 1000.8
20220529104812 77 195 3.0 10.0 0.00 0.00 0.00 9 1001.3
20220529104311 78 233 7.0 12.0 0.00 0.00 0.00 9 1001.2
20220529103809 77 253 5.0 11.0 0.00 0.00 0.00 9 1001.0
20220529103309 77 228 5.0 8.0 0.00 0.00 0.00 9 1001.2
20220529102808 77 247 7.0 8.0 0.00 0.00 0.00 9 1001.2
20220529102307 77 259 5.0 9.0 0.00 0.00 0.00 9 1001.2
20220529101805 77 236 4.0 9.0 0.00 0.00 0.00 8 1001.2
20220529101305 77 204 4.0 10.0 0.00 0.00 0.00 8 1001.0
20220529100804 77 212 5.0 8.0 0.00 0.00 0.00 9 1001.2
20220529100301 77 244 4.0 7.0 0.00 0.00 0.00 8 1000.9
20220529095801 77 192 2.0 7.0 0.00 0.00 0.00 9 1001.2
20220529095259 77 207 4.0 6.0 0.00 0.00 0.00 8 1001.3
20220529094757 78 222 6.0 6.0 0.00 0.00 0.00 8 1001.4
20220529094255 78 220 5.0 9.0 0.00 0.00 0.00 8 1001.3
20220529093754 79 225 2.0 11.0 0.00 0.00 0.00 8 1001.5
20220529093254 78 222 3.0 5.0 0.00 0.00 0.00 8 1001.3
20220529092752 79 270 0.0 9.0 0.00 0.00 0.00 8 1001.4
20220529092252 80 219 4.0 12.0 0.00 0.00 0.00 7 1001.3
20220529091751 80 228 7.0 11.0 0.00 0.00 0.00 7 1000.9
20220529091249 80 281 3.0 13.0 0.00 0.00 0.00 7 1000.9
20220529090748 80 264 6.0 15.0 0.00 0.00 0.00 7 1001.2
20220529090244 80 253 6.0 14.0 0.00 0.00 0.00 7 1000.7
20220529085743 81 263 1.0 14.0 0.00 0.00 0.00 7 1000.8
20220529085241 81 247 5.0 14.0 0.00 0.00 0.00 7 1000.9
20220529084740 81 208 4.0 12.0 0.00 0.00 0.00 7 1000.8
20220529084240 81 264 7.0 17.0 0.00 0.00 0.00 7 1001.2
20220529083739 81 221 6.0 12.0 0.00 0.00 0.00 7 1001.0
20220529083238 81 230 12.0 14.0 0.00 0.00 0.00 6 1000.9
20220529082738 82 247 7.0 13.0 0.00 0.00 0.00 6 1001.2
20220529082237 82 249 10.0 13.0 0.00 0.00 0.00 6 1000.7
20220529081736 82 225 9.0 11.0 0.00 0.00 0.00 6 1001.0
20220529081235 82 258 9.0 14.0 0.00 0.00 0.00 6 1001.0
20220529080733 82 256 5.0 17.0 0.00 0.00 0.00 6 1000.9
20220529080232 82 254 3.0 12.0 0.00 0.00 0.00 6 1001.3
20220529075732 82 258 6.0 12.0 0.00 0.00 0.00 6 1001.0
20220529075230 82 245 5.0 12.0 0.00 0.00 0.00 6 1001.0
20220529074730 83 244 7.0 10.0 0.00 0.00 0.00 6 1000.9
20220529074229 83 238 6.0 11.0 0.00 0.00 0.00 6 1000.9
20220529073728 83 225 6.0 14.0 0.00 0.00 0.00 6 1001.0
20220529073227 82 229 5.0 12.0 0.00 0.00 0.00 6 1001.3
20220529072727 82 230 8.0 11.0 0.00 0.00 0.00 6 1001.2
20220529072226 82 249 6.0 11.0 0.00 0.00 0.00 6 1001.4
20220529071725 82 238 7.0 10.0 0.00 0.00 0.00 6 1001.2
20220529071226 82 263 6.0 10.0 0.00 0.00 0.00 6 1001.2
20220529070726 82 245 6.0 10.0 0.00 0.00 0.00 6 1001.0
20220529070226 82 274 5.0 13.0 0.00 0.00 0.00 6 1001.5
20220529065724 82 241 4.0 11.0 0.00 0.00 0.00 6 1001.2
20220529065222 82 229 6.0 9.0 0.00 0.00 0.00 6 1001.5
20220529064721 81 237 8.0 10.0 0.00 0.00 0.00 6 1001.3
20220529064220 81 260 5.0 9.0 0.00 0.00 0.00 6 1001.4
20220529063720 82 229 4.0 10.0 0.00 0.00 0.00 5 1001.5
20220529063219 82 283 5.0 10.0 0.00 0.00 0.00 5 1001.5
20220529062718 82 265 2.0 11.0 0.00 0.00 0.00 5 1001.5
20220529062216 82 257 6.0 10.0 0.00 0.00 0.00 5 1001.3
20220529061716 83 267 7.0 14.0 0.00 0.00 0.00 5 1001.3
20220529061214 83 242 6.0 9.0 0.00 0.00 0.00 5 1001.2
20220529060714 83 255 7.0 10.0 0.00 0.00 0.00 5 1001.4
20220529060211 83 240 7.0 11.0 0.00 0.00 0.00 5 1001.4
20220529055710 83 252 9.0 12.0 0.00 0.00 0.00 5 1001.4
20220529055209 84 248 7.0 11.0 0.00 0.00 0.00 4 1001.3
20220529054707 84 250 5.0 9.0 0.00 0.00 0.00 4 1001.5
20220529054206 84 241 6.0 11.0 0.00 0.00 0.00 4 1001.3
20220529053703 84 254 7.0 13.0 0.00 0.00 0.00 4 1001.5
20220529053202 84 250 6.0 12.0 0.00 0.00 0.00 4 1001.4
20220529052701 85 227 9.0 12.0 0.00 0.00 0.00 4 1001.3
20220529052201 85 249 4.0 10.0 0.00 0.00 0.00 4 1001.4
20220529051659 85 242 7.0 11.0 0.00 0.00 0.00 4 1001.5
20220529051159 85 242 7.0 11.0 0.00 0.00 0.00 4 1001.3
20220529050657 85 226 7.0 9.0 0.00 0.00 0.00 4 1001.3
20220529050156 85 258 7.0 13.0 0.00 0.00 0.00 4 1001.6
20220529045654 85 209 3.0 10.0 0.00 0.00 0.00 3 1001.5
20220529045152 86 239 3.0 8.0 0.00 0.00 0.00 3 1001.6
20220529044651 86 246 5.0 11.0 0.00 0.00 0.00 3 1001.7
20220529044150 86 247 3.0 8.0 0.00 0.00 0.00 3 1001.6
20220529043648 86 270 5.0 8.0 0.00 0.00 0.00 3 1001.7
20220529043147 86 258 5.0 7.0 0.00 0.00 0.00 3 1001.6
20220529042646 86 276 2.0 7.0 0.00 0.00 0.00 3 1001.5
20220529042144 86 256 6.0 8.0 0.00 0.00 0.00 3 1001.9
20220529041642 87 236 7.0 10.0 0.00 0.00 0.00 3 1001.5
20220529041141 87 221 7.0 9.0 0.00 0.00 0.00 2 1001.7
20220529040641 87 260 4.0 9.0 0.00 0.00 0.00 2 1001.6
20220529040140 87 233 5.0 9.0 0.00 0.00 0.00 3 1001.5
20220529035640 88 248 2.0 11.0 0.00 0.00 0.00 3 1001.5
20220529035139 88 266 6.0 9.0 0.00 0.00 0.00 2 1001.4
20220529034638 88 227 9.0 10.0 0.00 0.00 0.00 2 1001.5
20220529034137 88 218 3.0 8.0 0.00 0.00 0.00 3 1001.3
20220529033633 89 239 5.0 10.0 0.00 0.00 0.00 3 1001.4
20220529033133 90 264 5.0 10.0 0.00 0.00 0.00 3 1001.5
20220529032633 91 283 5.0 11.0 0.00 0.00 0.00 2 1001.6
20220529032131 90 264 7.0 12.0 0.00 0.00 0.00 3 1001.3
20220529031629 91 241 6.0 9.0 0.00 0.00 0.00 3 1001.3
20220529031127 91 305 5.0 10.0 0.00 0.00 0.00 3 1001.3
20220529030626 91 245 7.0 11.0 0.00 0.00 0.00 4 1001.0
20220529030126 91 259 6.0 13.0 0.00 0.00 0.00 4 1001.3
20220529025625 92 248 5.0 12.0 0.00 0.00 0.00 4 1001.2
20220529025124 91 255 5.0 11.0 0.00 0.00 0.00 4 1000.9
20220529024623 92 208 2.0 8.0 0.00 0.00 0.00 4 1001.0
20220529024121 92 259 7.0 9.0 0.00 0.00 0.00 5 1001.0
20220529023619 92 270 2.0 9.0 0.00 0.00 0.00 5 1001.0
20220529023118 92 280 6.0 17.0 0.00 0.00 0.00 5 1000.7
20220529022616 93 264 5.0 7.0 0.00 0.00 0.00 5 1000.8
20220529022115 93 253 6.0 8.0 0.00 0.00 0.00 5 1000.7
20220529021614 93 233 4.0 9.0 0.00 0.00 0.00 5 1000.6
20220529021113 94 274 3.0 7.0 0.00 0.00 0.00 6 1000.5
20220529020611 94 270 3.0 10.0 0.00 0.00 0.00 6 1000.6
20220529020110 94 261 7.0 14.0 0.00 0.00 0.00 6 1000.5
20220529015609 94 246 3.0 11.0 0.00 0.00 0.00 6 1000.3
20220529015108 95 264 5.0 9.0 0.00 0.00 0.00 6 1000.5
20220529014608 95 247 2.0 8.0 0.00 0.00 0.00 6 1000.3
20220529014107 96 281 6.0 11.0 0.00 0.00 0.00 6 1000.1
20220529013606 97 236 6.0 23.0 0.00 0.00 0.00 7 1000.2
20220529013104 96 226 7.0 13.0 0.00 0.00 0.00 8 1000.1
20220529012603 97 205 3.0 9.0 0.00 0.00 0.00 8 1000.2
20220529012102 97 218 2.0 11.0 0.00 0.00 0.00 8 999.8
20220529011600 97 217 6.0 11.0 0.00 0.00 0.00 8 1000.0
20220529011059 98 242 3.0 12.0 0.00 0.00 0.00 8 1000.1
20220529010558 98 231 11.0 11.0 0.00 0.00 0.00 8 999.8
20220529010057 98 230 11.0 12.0 0.00 0.00 0.00 8 1000.0
20220529005555 98 232 4.0 9.0 0.00 0.00 0.00 8 999.8
20220529005053 98 190 7.0 11.0 0.00 0.00 0.00 9 1000.1
20220529004551 98 167 4.0 20.0 0.00 0.00 0.00 8 1000.4
20220529004050 98 176 6.0 16.0 0.00 0.00 0.00 8 1000.2
20220529003550 99 227 9.0 15.0 0.00 0.00 0.00 8 1000.1
20220529003050 98 236 7.0 13.0 0.00 0.00 0.00 9 1000.4
20220529002548 98 207 3.0 9.0 0.00 0.00 0.00 8 1000.2
20220529002047 99 237 12.0 16.0 0.00 0.00 0.00 8 1000.2
20220529001543 99 265 4.0 12.0 0.00 0.00 0.00 8 1000.2
20220529001043 99 169 3.0 11.0 0.00 0.00 0.00 8 1000.4
20220529000542 100 231 9.0 13.0 0.00 0.00 0.00 8 1000.5
20220529000042 100 204 5.0 11.0 0.00 0.00 0.00 8 1000.5
20220528235541 100 230 4.0 14.0 0.00 0.00 0.00 8 1000.4
20220528235040 100 251 11.0 16.0 0.00 0.00 0.00 7 1000.7
20220528234539 101 275 8.0 16.0 0.00 0.00 0.00 7 1000.6
20220528234038 101 228 17.0 24.0 0.00 0.00 0.00 7 1000.5
20220528233536 101 249 16.0 24.0 0.00 0.00 0.00 7 1000.5
20220528233035 101 249 8.0 24.0 0.00 0.00 0.00 7 1000.7
20220528232533 100 265 7.0 22.0 0.00 0.00 0.00 7 1000.6
20220528232032 100 242 6.0 18.0 0.00 0.00 0.00 7 1000.5
20220528231530 101 265 4.0 25.0 0.00 0.00 0.00 8 1000.8
20220528231029 101 217 5.0 13.0 0.00 0.00 0.00 8 1001.0
20220528230529 101 240 14.0 15.0 0.00 0.00 0.00 7 1000.8
20220528230028 102 212 9.0 17.0 0.00 0.00 0.00 7 1001.0
20220528225528 102 222 6.0 19.0 0.00 0.00 0.00 7 1001.2
20220528225027 101 242 9.0 23.0 0.00 0.00 0.00 7 1001.0
20220528224525 102 238 5.0 25.0 0.00 0.00 0.00 8 1001.3
20220528224024 102 191 10.0 20.0 0.00 0.00 0.00 8 1001.2
20220528223520 102 181 5.0 20.0 0.00 0.00 0.00 8 1001.3
20220528223020 103 236 14.0 19.0 0.00 0.00 0.00 7 1001.0
20220528222519 103 259 10.0 13.0 0.00 0.00 0.00 7 1001.5
20220528222018 102 239 5.0 22.0 0.00 0.00 0.00 7 1001.7
20220528221514 102 206 7.0 18.0 0.00 0.00 0.00 7 1001.6
20220528221013 102 228 7.0 23.0 0.00 0.00 0.00 7 1001.9
20220528220511 103 273 11.0 19.0 0.00 0.00 0.00 7 1001.9
20220528220011 103 236 6.0 24.0 0.00 0.00 0.00 7 1001.7
20220528215510 102 243 9.0 22.0 0.00 0.00 0.00 8 1002.1
20220528215009 103 259 18.0 20.0 0.00 0.00 0.00 7 1002.1
20220528214508 102 227 7.0 22.0 0.00 0.00 0.00 7 1002.1
20220528214006 103 277 6.0 15.0 0.00 0.00 0.00 8 1002.1
20220528213505 102 173 9.0 19.0 0.00 0.00 0.00 7 1002.6
20220528213003 103 258 7.0 21.0 0.00 0.00 0.00 7 1002.5
20220528212501 102 238 5.0 16.0 0.00 0.00 0.00 7 1002.7
20220528212000 102 204 5.0 24.0 0.00 0.00 0.00 7 1002.7
20220528211458 103 246 9.0 20.0 0.00 0.00 0.00 7 1002.9
20220528210957 102 222 11.0 20.0 0.00 0.00 0.00 7 1003.0
20220528210456 102 231 7.0 15.0 0.00 0.00 0.00 7 1003.5
20220528205954 103 218 11.0 18.0 0.00 0.00 0.00 7 1003.6
20220528205453 103 234 7.0 15.0 0.00 0.00 0.00 8 1003.5
20220528204953 102 205 4.0 12.0 0.00 0.00 0.00 7 1003.5
20220528204453 102 211 5.0 18.0 0.00 0.00 0.00 7 1003.5
20220528203952 103 209 4.0 13.0 0.00 0.00 0.00 8 1003.8
20220528203451 103 217 8.0 15.0 0.00 0.00 0.00 9 1003.6
20220528202951 103 248 6.0 15.0 0.00 0.00 0.00 8 1003.9
20220528202451 103 254 15.0 16.0 0.00 0.00 0.00 7 1004.1
20220528201949 101 239 5.0 16.0 0.00 0.00 0.00 8 1004.0
20220528201448 102 250 12.0 21.0 0.00 0.00 0.00 8 1004.1
20220528200946 101 231 13.0 25.0 0.00 0.00 0.00 8 1004.5
20220528200446 101 227 7.0 19.0 0.00 0.00 0.00 8 1004.5
20220528195945 102 248 7.0 21.0 0.00 0.00 0.00 9 1004.3
20220528195444 102 267 17.0 17.0 0.00 0.00 0.00 8 1004.5
20220528194943 102 234 12.0 23.0 0.00 0.00 0.00 8 1004.5
20220528194441 101 270 12.0 22.0 0.00 0.00 0.00 8 1004.8
20220528193941 102 224 10.0 20.0 0.00 0.00 0.00 8 1004.5
20220528193441 101 234 6.0 24.0 0.00 0.00 0.00 9 1004.7
20220528192940 101 223 22.0 23.0 0.00 0.00 0.00 8 1005.0
20220528191938 101 231 14.0 21.0 0.00 0.00 0.00 9 1005.2
20220528191437 100 210 7.0 21.0 0.00 0.00 0.00 9 1005.3
20220528190936 100 255 9.0 24.0 0.00 0.00 0.00 9 1005.3
20220528190434 100 221 10.0 20.0 0.00 0.00 0.00 9 1005.5
20220528185932 101 262 8.0 19.0 0.00 0.00 0.00 9 1005.6
20220528185430 100 228 17.0 18.0 0.00 0.00 0.00 9 1005.5
20220528184929 100 230 7.0 21.0 0.00 0.00 0.00 9 1005.5
20220528184428 99 214 6.0 20.0 0.00 0.00 0.00 9 1005.5
20220528183925 99 228 14.0 18.0 0.00 0.00 0.00 9 1006.0
20220528183424 99 239 9.0 24.0 0.00 0.00 0.00 9 1006.0
20220528182924 99 229 11.0 18.0 0.00 0.00 0.00 9 1005.9
20220528182423 98 217 10.0 24.0 0.00 0.00 0.00 10 1005.7
20220528181922 98 222 5.0 31.0 0.00 0.00 0.00 10 1005.9
20220528181420 99 298 13.0 22.0 0.00 0.00 0.00 9 1006.0
20220528180920 100 260 7.0 18.0 0.00 0.00 0.00 9 1006.2
20220528180419 101 248 17.0 20.0 0.00 0.00 0.00 9 1006.0
20220528175918 100 250 5.0 23.0 0.00 0.00 0.00 10 1006.0
20220528175417 101 250 14.0 23.0 0.00 0.00 0.00 9 1006.0
20220528174916 100 219 16.0 22.0 0.00 0.00 0.00 10 1006.1
20220528174416 100 251 10.0 20.0 0.00 0.00 0.00 10 1006.1
20220528173915 100 264 13.0 18.0 0.00 0.00 0.00 10 1006.4
20220528173414 100 271 13.0 24.0 0.00 0.00 0.00 10 1006.5
20220528172912 100 250 10.0 18.0 0.00 0.00 0.00 10 1006.2
20220528172411 99 217 7.0 24.0 0.00 0.00 0.00 10 1006.5
20220528171909 100 241 3.0 18.0 0.00 0.00 0.00 10 1006.3
20220528171408 100 246 11.0 18.0 0.00 0.00 0.00 10 1006.4
20220528170906 99 298 9.0 30.0 0.00 0.00 0.00 10 1006.3
20220528170404 99 245 2.0 20.0 0.00 0.00 0.00 10 1006.2
20220528165902 99 242 9.0 18.0 0.00 0.00 0.00 10 1006.4
20220528165400 99 234 5.0 20.0 0.00 0.00 0.00 10 1006.5
20220528164900 99 258 7.0 18.0 0.00 0.00 0.00 10 1006.6
20220528164359 99 258 7.0 18.0 0.00 0.00 0.00 10 1006.6
20220528163858 99 218 9.0 16.0 0.00 0.00 0.00 10 1006.6
20220528163357 99 269 12.0 16.0 0.00 0.00 0.00 10 1006.7
20220528162855 98 260 8.0 21.0 0.00 0.00 0.00 10 1006.9
20220528162353 99 222 11.0 17.0 0.00 0.00 0.00 10 1006.8
20220528161852 98 228 8.0 23.0 0.00 0.00 0.00 10 1007.2
20220528161350 98 260 6.0 19.0 0.00 0.00 0.00 10 1007.3
20220528160848 97 273 3.0 18.0 0.00 0.00 0.00 11 1007.6
20220528160346 97 257 4.0 14.0 0.00 0.00 0.00 10 1007.6
20220528155845 96 237 3.0 5.0 0.00 0.00 0.00 13 1007.7
20220528155343 95 212 2.0 5.0 0.00 0.00 0.00 17 1007.6
20220528154842 95 157 3.0 4.0 0.00 0.00 0.00 17 1007.9
20220528154341 96 201 2.0 4.0 0.00 0.00 0.00 15 1007.8
20220528153840 95 97 3.0 5.0 0.00 0.00 0.00 14 1007.8
20220528153339 95 117 2.0 3.0 0.00 0.00 0.00 15 1007.9
20220528152837 95 79 2.0 3.0 0.00 0.00 0.00 19 1008.0
20220528152337 92 140 2.0 4.0 0.00 0.00 0.00 22 1008.2
20220528151835 90 98 0.0 6.0 0.00 0.00 0.00 31 1008.4
20220528151334 88 144 4.0 5.0 0.00 0.00 0.00 32 1008.0
20220528150833 89 180 2.0 6.0 0.00 0.00 0.00 30 1008.4
20220528150332 87 96 2.0 5.0 0.00 0.00 0.00 34 1008.6
20220528145832 87 73 2.0 4.0 0.00 0.00 0.00 33 1008.6
20220528145331 86 129 4.0 7.0 0.00 0.00 0.00 33 1008.7
20220528144829 85 145 4.0 7.0 0.00 0.00 0.00 34 1008.6
20220528144328 86 59 0.0 4.0 0.00 0.00 0.00 34 1008.8
20220528143827 84 144 4.0 8.0 0.00 0.00 0.00 35 1008.5
20220528143326 84 123 4.0 5.0 0.00 0.00 0.00 35 1008.8
20220528142824 84 167 3.0 8.0 0.00 0.00 0.00 34 1008.6
20220528142323 84 120 6.0 8.0 0.00 0.00 0.00 35 1008.6
20220528141822 84 156 2.0 6.0 0.00 0.00 0.00 34 1008.5
20220528141320 84 127 4.0 4.0 0.00 0.00 0.00 34 1008.4
20220528140819 83 148 3.0 5.0 0.00 0.00 0.00 35 1008.5
20220528140318 82 135 3.0 5.0 0.00 0.00 0.00 37 1008.5
20220528135816 81 156 2.0 6.0 0.00 0.00 0.00 40 1008.4
20220528135314 80 170 4.0 6.0 0.00 0.00 0.00 41 1008.4
20220528134813 80 140 3.0 8.0 0.00 0.00 0.00 41 1008.4
20220528134311 79 150 2.0 3.0 0.00 0.00 0.00 43 1008.6
20220528133811 79 180 0.0 5.0 0.00 0.00 0.00 45 1008.6
20220528133310 78 195 0.0 2.0 0.00 0.00 0.00 45 1008.6
20220528132809 77 90 0.0 2.0 0.00 0.00 0.00 46 1008.6
20220528132308 75 154 0.0 5.0 0.00 0.00 0.00 50 1008.4
20220528131806 74 111 3.0 4.0 0.00 0.00 0.00 51 1008.4
20220528131305 72 90 1.0 5.0 0.00 0.00 0.00 53 1008.6
20220528130804 72 90 4.0 4.0 0.00 0.00 0.00 52 1008.7
20220528130304 70 40 2.0 4.0 0.00 0.00 0.00 57 1008.7
20220528125802 71 87 4.0 4.0 0.00 0.00 0.00 53 1008.5
20220528125301 71 106 0.0 2.0 0.00 0.00 0.00 52 1008.3
20220528124800 70 113 3.0 3.0 0.00 0.00 0.00 53 1008.3
20220528124258 69 120 1.0 3.0 0.00 0.00 0.00 54 1008.5
20220528123757 68 158 3.0 3.0 0.00 0.00 0.00 55 1008.3
20220528123255 68 139 2.0 3.0 0.00 0.00 0.00 56 1008.3
20220528122754 67 157 1.0 2.0 0.00 0.00 0.00 57 1008.3
20220528122253 67 103 0.0 1.0 0.00 0.00 0.00 58 1008.4
20220528121751 66 117 0.0 2.0 0.00 0.00 0.00 58 1008.4
20220528121251 66 32 0.0 2.0 0.00 0.00 0.00 58 1008.4
20220528120751 67 105 1.0 2.0 0.00 0.00 0.00 58 1008.2
20220528120249 67 83 0.0 2.0 0.00 0.00 0.00 57 1008.3
20220528115748 66 348 0.0 2.0 0.00 0.00 0.00 56 1008.3
20220528115247 67 111 0.0 3.0 0.00 0.00 0.00 56 1008.3
20220528114743 67 123 2.0 2.0 0.00 0.00 0.00 55 1007.9
20220528114239 67 114 1.0 2.0 0.00 0.00 0.00 55 1008.5
20220528113740 67 143 2.0 4.0 0.00 0.00 0.00 56 1008.0
20220528113238 66 90 0.0 0.0 0.00 0.00 0.00 55 1007.9
20220528112736 66 90 1.0 2.0 0.00 0.00 0.00 55 1008.0
20220528112235 66 74 0.0 2.0 0.00 0.00 0.00 54 1008.3